Burlington, IA

4:54 PM CST on January 19, 2017 (GMT -0600)
Burlington Regional

Weather History for KBRL - January, 2014

Change the Weather History Date:

Tuesday, January 7, 2014

  Actual Average Record
Temperature  
Mean Temperature 2 °F 26 °F  
Max Temperature 14 °F 34 °F 65 °F (2008)
Min Temperature -10 °F 17 °F -17 °F (1912)
Degree Days  
Heating Degree Days 63 39  
Month to date heating degree days 401 273  
Since 1 July heating degree days 2918 2459  
Cooling Degree Days 0 0  
Month to date cooling degree days 0 0  
Year to date cooling degree days 0 0  
Moisture  
Dew Point -6 °F    
Average Humidity 72    
Maximum Humidity 86    
Minimum Humidity 58    
Precipitation  
Precipitation 0.00 in 0.04 in 0.18 in (2008)
Month to date precipitation 0.08 0.30  
Year to date precipitation 0.08 0.30  
Sea Level Pressure  
Sea Level Pressure 30.31 in    
Wind  
Wind Speed 6 mph (South)    
Max Wind Speed 12 mph    
Max Gust Speed 14 mph    
Visibility 10 miles    
Events      
T = Trace of Precipitation, MM = Missing Value Source: NWS Daily Summary

Daily Weather History Graph

Daily Weather History Graph

Search for Another Location

Airport or City:

Trip Planner

Search our weather history database for the weather conditions in past years. The results will help you decide how hot, cold, wet, or windy it might be!

Date:

Astronomy

Jan. 07, 2014 Rise Set
Actual Time 7:28 AM CST 4:53 PM CST
Civil Twilight 6:58 AM CST 5:23 PM CST
Nautical Twilight 6:23 AM CST 5:58 PM CST
Astronomical Twilight 5:50 AM CST 6:31 PM CST
Moon 11:14 AM CST (1/7) No Moon Set
Length of Visible Light 10h 25m
Length of Day
9h 24m
Waxing Crescent, 46% of the Moon is Illuminated
Jan 7
Waxing Crescent
Jan 7
First Quarter
Jan 15
Full
Jan 23
Last Quarter
Jan 30
New

Hourly Weather History & Observations

Time (CST) Temp. Windchill Dew Point Humidity Pressure Visibility Wind Dir Wind Speed Gust Speed Precip Events Conditions
12:53 AM -8.0 °F -25.0 °F -16.1 °F 68% 30.40 in 10.0 mi WSW 9.2 mph - N/A   Clear
1:53 AM -8.0 °F -25.0 °F -16.1 °F 68% 30.40 in 10.0 mi WSW 9.2 mph - N/A   Clear
2:53 AM -8.0 °F -23.9 °F -15.0 °F 71% 30.41 in 10.0 mi WSW 8.1 mph - N/A   Clear
3:53 AM -6.0 °F -21.5 °F -13.0 °F 72% 30.39 in 10.0 mi WSW 8.1 mph - N/A   Clear
4:53 AM -6.0 °F -18.6 °F -11.9 °F 75% 30.37 in 10.0 mi SW 5.8 mph - N/A   Clear
5:53 AM -7.1 °F -18.1 °F -14.1 °F 72% 30.37 in 10.0 mi SSW 4.6 mph - N/A   Clear
6:53 AM -8.0 °F -19.2 °F -13.0 °F 79% 30.37 in 10.0 mi South 4.6 mph - N/A   Overcast
7:53 AM -6.0 °F -22.6 °F -11.0 °F 79% 30.36 in 10.0 mi South 9.2 mph - N/A   Overcast
8:53 AM -2.9 °F -16.5 °F -9.9 °F 72% 30.37 in 10.0 mi SSW 6.9 mph - N/A   Overcast
9:53 AM -0.0 °F -17.1 °F -8.0 °F 69% 30.36 in 10.0 mi South 11.5 mph - N/A   Overcast
10:53 AM 3.9 °F -8.2 °F -5.1 °F 66% 30.32 in 10.0 mi South 6.9 mph - N/A   Overcast
11:53 AM 7.0 °F -4.5 °F -2.9 °F 64% 30.27 in 10.0 mi SE 6.9 mph - N/A   Overcast
12:53 PM 9.0 °F -3.2 °F -0.9 °F 64% 30.22 in 10.0 mi ESE 8.1 mph - N/A   Overcast
1:53 PM 10.9 °F -2.6 °F -0.0 °F 61% 30.19 in 10.0 mi ESE 10.4 mph - N/A   Overcast
2:53 PM 12.0 °F -1.3 °F -0.0 °F 59% 30.20 in 10.0 mi SSE 10.4 mph - N/A   Overcast
3:53 PM 12.9 °F 3.8 °F 1.0 °F 59% 30.22 in 10.0 mi South 5.8 mph - N/A   Mostly Cloudy
4:53 PM 10.9 °F 2.9 °F -0.9 °F 59% 30.24 in 10.0 mi SE 4.6 mph - N/A   Clear
5:53 PM 10.0 °F - -2.0 °F 58% 30.26 in 10.0 mi Calm Calm - N/A   Clear
6:53 PM 5.0 °F -2.1 °F -0.9 °F 76% 30.27 in 10.0 mi ENE 3.5 mph - N/A   Clear
7:53 PM 3.9 °F -5.3 °F -0.9 °F 80% 30.28 in 10.0 mi ENE 4.6 mph - N/A   Clear
8:53 PM 6.1 °F -0.9 °F -0.0 °F 76% 30.28 in 10.0 mi NNE 3.5 mph - N/A   Clear
9:53 PM 3.9 °F -3.4 °F -0.9 °F 80% 30.29 in 10.0 mi NE 3.5 mph - N/A   Overcast
10:53 PM 3.9 °F - -0.0 °F 84% 30.29 in 10.0 mi Calm Calm - N/A   Clear
11:53 PM 1.9 °F - -0.9 °F 88% 30.30 in 10.0 mi Calm Calm - N/A   Clear